This is the latest recevied weather packets stored in our database for station/object IZ1UQG-2. If no packets are shown the sender has not sent any weather packets the latest 10 day(s).
| Time | Temp. | Humidity | Pressure | Rain* | Wind** | Luminosity | Snow |
|---|---|---|---|---|---|---|---|
| 1777557849 | 18.33° C | 47% | 1020.8 hPa | 0 mm | - | 719 W/m² | - |
| 1777557544 | 18.33° C | 46% | 1020.9 hPa | 0 mm | - | 450 W/m² | - |
| 1777557304 | 18.33° C | 45% | 1021 hPa | 0 mm | - | 276 W/m² | - |
| 1777557244 | 18.89° C | 45% | 1021.1 hPa | 0 mm | - | 554 W/m² | - |
| 1777557184 | 18.33° C | 46% | 1021.1 hPa | 0 mm | - | 821 W/m² | - |
| 1777556585 | 18.33° C | 47% | 1021.2 hPa | 0 mm | - | 387 W/m² | - |
| 1777556525 | 17.78° C | 46% | 1021.3 hPa | 0 mm | - | 717 W/m² | - |
| 1777556405 | 17.78° C | 45% | 1021.3 hPa | 0 mm | - | 715 W/m² | - |
| 1777556344 | 17.78° C | 46% | 1021.4 hPa | 0 mm | - | 793 W/m² | - |
| 1777555563 | 18.33° C | 45% | 1021.4 hPa | 0 mm | - | 781 W/m² | - |
| 1777554484 | 17.22° C | 46% | 1021.7 hPa | 0 mm | - | 496 W/m² | - |
| 1777554424 | 17.78° C | 46% | 1021.6 hPa | 0 mm | - | 341 W/m² | - |
| 1777554375 | 17.78° C | 46% | 1021.6 hPa | 0 mm | - | 316 W/m² | - |
| 1777554244 | 17.78° C | 46% | 1021.6 hPa | 0 mm | - | 366 W/m² | - |
| 1777553825 | 17.78° C | 47% | 1021.8 hPa | 0 mm | - | 898 W/m² | - |
| 1777553705 | 17.22° C | 46% | 1021.7 hPa | 0 mm | - | 914 W/m² | - |
| 1777553525 | 17.78° C | 46% | 1021.7 hPa | 0 mm | - | 476 W/m² | - |
| 1777553464 | 17.78° C | 47% | 1021.7 hPa | 0 mm | - | 309 W/m² | - |
| 1777553344 | 17.22° C | 47% | 1021.8 hPa | 0 mm | - | 506 W/m² | - |
| 1777552265 | 17.78° C | 47% | 1022 hPa | 0 mm | - | 856 W/m² | - |
| 1777551664 | 17.22° C | 47% | 1022.1 hPa | 0 mm | - | 854 W/m² | - |
| 1777551429 | 17.22° C | 46% | 1022 hPa | 0 mm | - | 870 W/m² | - |
| 1777551255 | 17.78° C | 46% | 1022 hPa | 0 mm | - | 830 W/m² | - |
| 1777551064 | 17.22° C | 47% | 1022.2 hPa | 0 mm | - | 698 W/m² | - |
| 1777550704 | 17.78° C | 46% | 1022.1 hPa | 0 mm | - | 844 W/m² | - |
* Rain latest hour (hover to see other rain measurements)
** Current wind speed in m/s (hover to see current wind gust speed)